SCP
0 0 0 0 0 0 0 0 0 0 0 0 0 0 0 0 0 0 0 0 0 0 0 0 0 0 0 0 0 0 0 0 0 0 0 0 0 0 0 0 0 0 0 0 0 0 0 0 0
0 0 0 0 0 0 0 0 0 0 0 0 0 0 0 0 0 0 0 0 0 0 0 0 0 0 0 0 0 0 0 0 0 0 0 0 0 0 0 0 0 0 0 0 0 0 0 0 0
0 0 0 0 0 0 0 0 0 0 0 0 0 0 0 0 0 0 0 0 0 0 0 0 0 0 0 0 0 0 0 0 0 0 0 0 0 0 0 0 0 0 0 0 0 0 0 0 0
0 0 0 0 0 0 0 0 0 0 0 0 0 0 0 0 0 0 0 0 0 0 0 0 0 0 0 0 0 0 0 0 0 0 0 0 0 0 0 0 0 0 0 0 0 0 0 0 0
0 0 0 0 0 0 0 0 0 0 0 0 0 0 0 0 0 0 0 0 0 0 0 0 0 0 0 0 0 0 0 0 0 0 0 0 0 0 0 0 0 0 0 0 0 0 0 0 0
0 0 0 0 0 0 0 0 0 0 0 0 0 0 0 0 0 0 0 0 0 0 0 0 0 0 0 0 0 0 0 0 0 0 0 0 0 0 0 0 0 0 0 0 0 0 0 0 0
0 0 0 0 0 0 0 0 0 0 0 0 0 0 0 0 0 0 0 0 0 0 0 0 0 0 0 0 0 0 0 0 0 0 0 0 0 0 0 0 0 0 0 0 0 0 0 0 0
0 0 0 0 0 0 0 0 0 0 0 0 0 0 0 0 0 1 0 0 0 0 0 0 0 0 0 0 0 0 0 0 0 0 0 0 0 0 0 0 0 0 0 0 0 0 0 0 0
0 0 0 0 0 0 0 0 0 0 0 0 0 0 0 0 1 1 1 0 0 0 0 0 0 0 0 0 0 0 0 0 0 0 0 0 0 0 0 0 0 0 0 0 0 0 0 0 0
0 0 0 0 0 0 0 0 0 0 0 0 0 0 0 0 1 1 1 0 0 0 0 0 0 0 0 0 0 0 0 0 0 0 0 0 0 0 0 0 0 0 0 0 0 0 0 0 0
0 0 0 0 0 0 0 0 0 0 0 0 0 0 0 0 1 1 1 1 0 0 0 0 0 0 0 0 0 0 0 0 0 0 0 0 0 0 0 0 0 0 0 0 0 0 0 0 0
0 0 0 0 0 0 0 0 0 0 0 0 0 0 0 0 0 0 0 1 1 1 0 0 0 0 0 0 0 0 0 0 0 0 0 0 0 0 0 0 0 0 0 0 0 0 0 0 0
0 0 0 0 0 0 0 0 0 0 0 0 0 0 0 0 0 0 0 0 1 1 1 1 0 0 0 0 0 0 0 0 0 0 0 0 0 0 0 0 0 0 0 0 0 0 0 0 0
0 0 0 0 0 0 0 0 0 0 0 0 0 0 0 0 0 0 0 0 0 1 1 1 1 1 0 0 0 0 0 0 0 0 0 0 0 0 0 0 0 0 0 0 0 0 0 0 0
0 0 0 0 0 0 0 0 0 0 0 0 0 0 0 0 0 0 0 0 0 0 1 1 1 1 1 0 0 0 0 0 0 0 0 0 0 0 0 0 0 0 0 0 0 0 0 0 0
0 0 0 0 0 0 0 0 0 0 0 0 0 0 0 0 0 0 0 0 0 0 0 1 1 1 1 1 1 0 0 0 0 0 0 0 0 0 0 0 0 0 0 0 0 0 0 0 0
0 0 0 0 0 0 0 0 0 0 0 0 0 0 0 0 0 0 0 0 0 0 0 0 1 1 1 1 1 1 0 0 0 0 0 0 0 0 0 0 0 0 0 0 0 0 0 0 0
0 0 0 0 0 0 0 0 0 0 0 0 0 0 0 0 0 0 0 0 0 0 0 0 0 1 1 2 2 1 1 1 0 0 0 0 0 0 0 0 0 0 0 0 0 0 0 0 0
0 0 0 0 0 0 0 0 0 0 0 0 0 0 0 0 0 0 0 0 0 0 0 0 0 0 1 2 2 2 2 1 1 1 0 0 0 0 0 0 0 0 0 0 0 0 0 0 0
0 0 0 0 0 0 0 0 0 0 0 0 0 0 0 0 0 0 0 0 0 0 0 0 0 0 0 1 2 2 2 2 1 1 1 0 0 0 0 0 0 0 0 0 0 0 0 0 0
0 0 0 0 0 0 0 0 0 0 0 0 0 0 0 0 0 0 0 0 0 0 0 0 0 0 0 1 1 2 2 2 1 1 1 1 0 0 0 0 0 0 0 0 0 0 0 0 0
0 0 0 0 0 0 0 0 0 0 0 0 0 0 0 0 0 0 0 0 0 0 0 0 0 0 0 0 1 1 1 2 2 1 1 1 0 0 0 0 0 0 0 0 0 0 0 0 0
0 0 0 0 0 0 0 0 0 0 0 0 0 0 0 0 0 0 0 0 0 0 0 0 0 0 0 0 0 1 1 1 1 1 1 1 0 0 0 0 0 0 0 0 0 0 0 0 0
0 0 0 0 0 0 0 0 0 0 0 0 0 0 0 0 0 0 0 0 0 0 0 0 0 0 0 0 0 0 1 1 1 1 1 1 1 0 0 0 0 0 0 0 0 0 0 0 0
0 0 0 0 0 0 0 0 0 0 0 0 0 0 0 0 0 0 0 0 0 0 0 0 0 0 0 0 0 0 0 0 0 1 1 1 1 0 0 0 0 0 0 0 0 0 0 0 0
0 0 0 0 0 0 0 0 0 0 0 0 0 0 0 0 0 0 0 0 0 0 0 0 0 0 0 0 0 0 0 0 0 0 0 0 0 0 0 0 0 0 0 0 0 0 0 0 0
0 0 0 0 0 0 0 0 0 0 0 0 0 0 0 0 0 0 0 0 0 0 0 0 0 0 0 0 0 0 0 0 0 0 0 0 0 0 0 0 0 0 0 0 0 0 0 0 0
0 0 0 0 0 0 0 0 0 0 0 0 0 0 0 0 0 0 0 0 0 0 0 0 0 0 0 0 0 0 0 0 0 0 0 0 0 0 0 0 0 0 0 0 0 0 0 0 0
0 0 0 0 0 0 0 0 0 0 0 0 0 0 0 0 0 0 0 0 0 0 0 0 0 0 0 0 0 0 0 0 0 0 0 0 0 0 0 0 0 0 0 0 0 0 0 0 0
0 0 0 0 0 0 0 0 0 0 0 0 0 0 0 0 0 0 0 0 0 0 0 0 0 0 0 0 0 0 0 0 0 0 0 0 0 0 0 0 0 0 0 0 0 0 0 0 0
Wind_Speed
5 3 3 5 6 4 3 6 3 4 4 3 2 2 4 6 5 4 0 7 9 10 9 12 14 14 14 14 14 15 14 14 13 13 12 10 9 9 8 8 9 10 11 13 13 13 12 11 11
1 3 5 6 5 1 6 5 5 5 4 5 3 0 1 2 1 3 4 5 10 11 8 9 14 14 14 14 14 15 14 14 13 12 11 10 10 9 9 9 10 12 13 13 13 12 11 11 10
2 5 5 5 4 7 6 5 6 4 6 3 3 1 2 2 2 5 5 8 9 9 8 10 14 14 14 14 14 14 15 14 13 12 11 10 10 10 10 10 10 11 12 11 11 10 10 9 9
4 5 5 3 7 8 6 3 1 7 7 4 3 4 3 1 2 4 8 10 10 8 7 9 14 14 14 13 14 14 15 15 14 13 11 10 10 10 10 10 10 10 10 9 9 9 8 7 7
5 5 3 3 8 6 5 4 2 4 5 4 3 4 4 4 2 7 12 11 10 7 6 8 14 14 14 13 14 14 15 15 14 13 12 11 10 11 10 10 9 9 8 8 8 7 7 6 6
5 5 5 7 10 5 4 3 2 3 4 4 2 2 4 2 3 8 12 12 10 8 7 7 13 13 12 13 13 14 15 15 14 14 12 11 11 11 11 10 9 8 8 7 7 6 6 5 6
6 5 6 6 6 7 5 4 3 4 6 5 3 3 4 1 4 8 9 10 9 8 7 6 7 9 11 11 11 12 13 13 13 13 12 11 10 10 10 10 9 8 7 6 6 6 6 6 6
5 6 5 5 5 6 2 3 3 4 6 3 4 6 6 3 8 9 9 8 8 7 6 6 6 6 6 7 10 10 11 11 12 12 10 9 9 9 9 8 7 7 6 5 5 6 7 8 7
4 5 6 7 7 4 2 2 2 1 3 2 2 3 4 7 12 12 9 8 10 9 6 6 6 6 6 5 7 8 9 10 10 9 10 8 5 4 5 5 5 5 5 5 6 7 9 8 8
4 5 8 6 6 4 1 1 2 3 2 2 2 4 3 9 13 13 12 13 13 13 11 7 7 6 6 6 5 4 4 5 5 4 6 4 4 3 4 6 5 4 4 4 6 8 8 6 4
6 7 5 4 3 2 1 1 1 1 2 1 1 4 2 5 10 11 11 12 12 11 12 11 9 7 6 4 4 3 3 3 4 5 5 4 3 2 3 2 2 2 3 3 5 6 3 3 3
5 4 4 3 3 2 2 1 2 2 4 2 1 1 2 3 6 8 10 10 8 9 11 11 10 8 7 5 4 4 3 3 4 5 6 4 3 3 3 3 3 3 2 3 3 3 4 4 4
4 2 3 1 0 1 2 3 3 5 6 3 3 2 1 1 4 4 5 6 8 10 11 11 11 11 9 7 5 5 5 5 5 5 6 6 5 5 4 3 3 3 3 3 4 4 4 4 4
6 3 1 1 2 2 3 5 3 7 4 3 4 5 4 4 5 4 5 7 10 11 12 11 13 13 11 9 7 6 6 6 6 6 7 7 6 5 5 4 4 4 4 4 4 5 4 3 3
5 4 2 3 3 3 2 7 6 8 4 5 7 7 8 7 6 7 7 7 9 10 11 13 13 13 13 12 10 7 7 7 7 7 7 8 7 7 6 5 5 5 4 5 4 4 4 3 3
5 4 3 3 2 3 4 9 4 6 4 7 8 7 7 8 8 8 8 8 7 8 9 12 12 14 15 14 11 9 8 9 8 7 8 10 10 9 7 6 6 6 5 5 5 5 4 3 3
3 4 4 2 0 1 5 7 5 3 2 7 8 8 7 8 8 9 8 8 8 8 9 10 12 13 15 16 12 11 9 10 8 8 8 10 12 11 9 7 6 7 6 5 6 3 3 3 3
6 4 4 4 2 2 3 7 10 6 5 8 9 9 8 9 10 8 8 8 8 8 8 9 10 12 12 11 9 8 9 9 8 9 10 11 11 12 10 7 8 8 7 6 5 5 3 3 4
7 6 3 2 2 3 4 7 13 10 7 9 10 10 10 10 8 6 7 7 7 7 8 9 10 10 9 8 10 11 12 11 10 11 12 13 12 13 12 9 9 9 9 9 9 5 4 3 3
5 5 2 1 4 3 5 10 12 9 7 7 8 9 9 9 9 7 6 5 6 7 7 8 9 10 10 9 9 8 9 9 10 9 10 12 13 13 12 12 11 10 8 9 9 6 5 3 4
3 4 3 1 3 4 6 9 7 5 4 4 5 5 6 7 9 9 7 6 5 6 6 6 8 9 9 9 6 4 4 3 5 7 9 12 13 14 13 14 12 12 12 12 12 10 10 6 3
3 2 4 3 3 3 4 6 10 4 7 4 5 6 6 6 6 6 7 7 6 6 5 5 6 7 8 7 7 10 10 11 11 10 10 11 14 15 14 14 14 14 12 12 13 11 7 8 5
5 4 5 4 3 2 1 3 11 4 3 4 6 7 7 6 6 6 6 6 6 5 5 4 5 5 6 6 8 10 11 11 8 8 10 11 11 13 14 14 13 14 12 13 12 11 9 6 7
8 7 6 5 4 2 3 4 9 3 2 5 7 7 7 7 8 8 7 7 7 7 6 5 5 6 5 6 7 9 12 11 9 9 10 10 8 9 12 12 13 12 11 12 12 12 12 8 7
4 5 3 3 2 5 2 3 11 5 4 4 5 7 7 7 8 10 11 11 10 10 9 8 7 8 6 6 6 8 11 11 12 12 12 10 9 9 14 13 13 11 10 10 9 10 10 8 8
4 5 5 4 3 4 2 7 9 5 5 4 3 5 6 8 8 8 9 9 9 9 9 9 9 9 8 7 7 7 8 7 8 10 9 11 10 11 12 13 12 11 10 10 9 7 7 6 7
6 3 3 6 2 3 5 7 10 3 1 2 5 6 8 9 9 9 9 9 9 9 9 8 9 9 9 8 8 7 7 7 8 8 8 7 6 6 9 10 9 9 9 9 9 7 8 8 7
5 7 5 5 3 3 6 5 5 3 2 5 7 9 10 9 10 10 10 10 9 9 9 9 8 8 9 8 7 6 6 6 6 5 6 5 5 5 8 8 9 9 10 10 9 9 9 10 8
4 4 4 4 3 3 3 6 5 5 2 4 8 8 9 9 9 9 10 10 10 9 8 8 8 8 7 7 7 6 4 3 2 2 3 3 4 7 9 9 10 10 11 11 11 10 12 12 10
4 6 6 5 3 3 2 10 4 4 3 5 8 8 7 7 8 8 10 10 10 10 9 8 8 8 7 6 6 5 3 2 1 2 3 6 7 8 10 11 11 11 11 11 12 13 12 12 11
Wind_Direction
3 15 67 58 54 52 249 249 241 270 260 268 255 207 181 171 175 213 86 138 134 141 154 156 159 158 157 152 147 144 143 140 136 133 129 127 125 124 119 113 106 108 114 113 107 101 97 96 98
5 33 55 62 95 212 258 243 234 236 274 310 307 344 241 224 182 134 143 164 145 145 150 152 158 159 157 153 151 149 149 146 142 139 137 135 132 131 124 112 102 98 99 99 99 98 98 100 103
83 50 84 89 151 195 232 232 227 286 294 285 314 308 244 266 180 175 176 156 143 143 144 154 158 159 157 156 156 157 155 152 148 144 142 140 137 136 129 117 105 99 99 101 102 103 103 104 103
88 57 60 117 220 220 219 237 240 327 339 353 353 312 285 337 206 173 142 146 141 138 140 156 156 158 158 160 162 163 161 157 152 148 146 144 141 138 131 121 113 109 109 110 110 110 109 106 104
66 92 110 217 237 238 237 257 284 322 312 326 348 289 279 347 67 127 138 146 145 136 139 156 157 160 162 166 168 169 166 161 157 154 152 149 145 140 135 130 127 126 124 122 120 118 114 106 99
76 93 144 218 240 249 250 234 269 280 277 291 257 250 275 29 113 139 144 147 146 142 144 156 159 160 165 170 173 175 171 167 163 161 159 155 150 145 144 143 141 139 134 131 127 121 112 97 87
122 133 180 205 239 256 247 199 213 245 272 261 207 215 279 193 147 139 139 138 140 143 146 156 156 161 167 172 175 179 175 171 168 168 166 160 155 154 154 153 152 149 143 136 130 118 102 87 83
138 132 172 201 215 249 246 199 212 203 253 252 173 189 243 211 146 136 133 136 144 149 156 159 155 157 162 170 178 182 176 172 172 174 169 163 160 161 163 163 166 162 154 143 131 115 96 83 84
105 123 190 199 195 233 231 219 258 295 260 296 217 238 280 131 144 145 146 156 167 173 173 168 164 163 162 167 180 179 176 176 176 175 167 157 154 159 167 171 181 177 162 149 134 116 99 84 82
133 176 207 199 188 185 194 208 312 359 346 335 352 360 41 137 158 166 170 175 182 187 187 183 178 173 169 177 171 171 171 172 168 160 159 150 152 164 166 178 186 177 155 137 128 110 97 86 74
169 191 201 218 199 176 157 303 325 8 300 268 338 334 73 152 170 181 187 189 190 190 193 193 190 184 180 179 169 169 166 164 163 164 161 154 152 157 158 153 168 145 112 87 93 88 87 94 98
173 210 194 206 189 171 181 265 292 217 232 211 254 323 110 166 194 199 200 201 198 197 201 200 196 193 191 186 181 176 174 173 174 174 167 158 158 164 163 161 154 137 122 121 108 106 104 100 101
180 198 197 227 289 214 206 232 248 252 253 271 299 347 34 221 241 241 221 212 209 210 207 206 202 202 197 192 190 189 189 187 184 180 179 172 172 175 172 168 160 152 142 143 136 129 124 116 108
189 195 246 245 236 232 231 252 226 257 254 255 267 275 270 254 242 238 222 212 211 216 215 210 210 208 202 201 199 195 195 193 190 192 188 182 180 178 175 173 171 167 160 153 147 142 134 122 117
141 151 254 249 211 233 227 269 229 244 250 261 261 263 270 261 248 239 231 219 214 215 215 214 213 210 208 207 205 201 197 195 201 200 193 190 186 182 181 182 183 176 158 144 131 124 117 117 114
115 134 214 263 202 215 194 261 253 254 252 265 267 263 262 266 257 251 246 239 230 221 217 216 214 211 211 211 207 206 200 200 205 201 197 197 192 187 184 188 189 170 155 150 146 140 124 127 132
136 167 196 269 7 241 209 257 271 305 275 274 278 275 267 268 265 255 249 243 239 228 224 220 216 212 211 212 210 208 203 203 205 201 202 201 197 192 189 191 185 167 162 160 159 147 139 148 149
170 159 176 220 337 342 261 273 286 287 278 274 277 279 276 268 263 255 248 242 240 235 230 227 222 220 214 210 209 209 208 209 205 206 208 201 198 193 190 187 179 170 167 167 162 147 125 134 144
149 148 173 227 358 337 285 284 284 281 270 266 268 271 276 277 274 267 253 251 248 241 231 229 225 223 213 205 207 210 214 213 209 210 208 202 198 192 190 185 178 178 180 178 166 143 137 133 142
121 132 163 322 7 360 312 285 272 269 254 253 268 280 285 290 296 290 275 262 248 243 234 230 229 228 218 213 209 209 211 213 213 210 207 203 197 191 191 187 184 183 177 173 173 155 144 146 169
130 149 163 177 1 35 338 303 291 308 332 315 300 293 297 294 298 303 305 290 275 262 250 240 230 229 226 221 212 201 196 201 201 206 210 205 198 195 194 192 185 185 183 185 185 177 162 159 185
173 147 129 108 55 334 23 315 294 321 331 338 344 343 332 324 317 316 321 319 305 285 275 259 248 238 233 223 214 207 209 214 212 211 211 203 198 197 196 191 189 187 189 188 188 184 172 151 161
128 98 93 93 104 340 337 228 283 339 352 347 343 346 347 345 347 345 339 329 328 326 317 297 280 262 248 230 219 217 223 224 218 209 207 205 201 199 198 193 191 190 192 191 185 181 181 170 162
117 81 66 57 69 276 219 192 278 289 281 311 323 335 342 348 356 354 350 350 346 345 341 333 315 290 270 249 234 225 226 226 217 210 208 205 200 198 198 194 194 194 192 189 187 183 183 181 164
104 103 54 357 3 251 176 214 254 266 270 275 300 320 330 343 353 352 350 347 342 339 335 332 326 309 296 270 249 237 234 230 224 217 214 207 201 201 200 195 195 194 191 186 178 177 179 173 163
157 144 162 198 236 284 207 239 257 264 283 286 295 310 330 344 346 343 336 331 326 323 323 325 322 310 303 288 269 252 242 236 233 224 217 212 210 208 198 196 193 189 181 175 166 163 160 148 141
125 121 131 119 100 289 270 278 300 271 295 319 327 337 340 339 339 335 330 326 320 315 312 313 311 307 303 293 283 271 252 238 235 229 220 215 210 194 185 183 177 168 161 157 152 149 141 131 124
125 135 108 124 157 266 294 272 256 276 311 332 337 334 329 332 333 332 329 325 318 311 308 310 305 300 298 295 285 279 266 251 241 225 216 206 188 163 157 157 151 146 143 142 137 133 130 122 119
121 113 107 105 144 166 287 281 226 214 263 311 310 311 318 324 327 327 325 321 317 316 316 317 319 318 315 313 307 298 291 281 246 208 191 162 139 137 141 140 137 135 135 135 131 130 128 122 118
153 158 145 148 189 170 205 271 267 226 265 285 295 305 316 323 324 325 325 326 328 328 329 329 329 332 330 329 330 328 337 13 68 101 114 121 123 127 131 131 129 129 129 129 128 126 122 120 117